EW0802 Weather Reports


time (UTC)temp
F
wind
direction
speed
knots
gust
knots
rain 1hr
in
rain 24hr
in
rain mn
in
humidity
%
barometer
mb
20260906233026 98 162 1.7 7.0 0.00 0.00 0.00 40 1008.6
20260906231526 99 38 1.7 5.2 0.00 0.00 0.00 38 1008.7
20260906230025 100 181 0.9 4.3 0.00 0.00 0.00 37 1008.6
20260906224523 100 289 0.0 2.6 0.00 0.00 0.00 38 1008.7
20260906223023 100 156 0.9 3.5 0.00 0.00 0.00 37 1008.8
20260906221522 99 236 0.9 3.5 0.00 0.00 0.00 39 1008.8
20260906220020 99 324 0.0 3.5 0.00 0.00 0.00 39 1008.9
20260906214531 99 49 0.9 5.2 0.00 0.00 0.00 40 1008.9
20260906213017 100 121 0.9 5.2 0.00 0.00 0.00 39 1009.1
20260906211515 100 175 0.0 3.5 0.00 0.00 0.00 41 1009.3
20260906210025 100 165 0.9 3.5 0.00 0.00 0.00 41 1009.5
20260906204516 98 169 0.9 4.3 0.00 0.00 0.00 42 1009.7
20260906203008 98 126 0.0 4.3 0.00 0.00 0.00 42 1009.9
20260906201507 98 142 0.0 1.7 0.00 0.00 0.00 43 1010.0
20260906200005 98 153 0.9 2.6 0.00 0.00 0.00 44 1010.2
20260906194508 97 123 1.7 4.3 0.00 0.00 0.00 46 1010.3
20260906193003 97 49 0.9 5.2 0.00 0.00 0.00 45 1010.6
20260906191504 96 118 0.0 2.6 0.00 0.00 0.00 47 1010.7
20260906190002 97 184 0.0 4.3 0.00 0.00 0.00 46 1010.8
20260906184609 98 71 0.9 3.5 0.00 0.00 0.00 45 1010.9
20260906183103 98 68 0.9 2.6 0.00 0.00 0.00 45 1011.0
20260906181600 99 360 0.0 3.5 0.00 0.00 0.00 45 1011.3
20260906180054 98 97 0.9 5.2 0.00 0.00 0.00 45 1011.5
20260906174551 97 46 0.0 3.5 0.00 0.00 0.00 47 1011.8
20260906173051 97 62 0.0 4.3 0.00 0.00 0.00 49 1012.1
20260906171541 96 306 0.9 2.6 0.00 0.00 0.00 50 1012.3
20260906170042 96 140 0.9 2.6 0.00 0.00 0.00 51 1012.5
20260906164534 95 59 0.9 2.6 0.00 0.00 0.00 52 1012.7
20260906163031 95 205 0.9 4.3 0.00 0.00 0.00 53 1012.6
20260906161530 93 82 0.9 3.5 0.00 0.00 0.00 53 1012.6
20260906160033 92 177 0.9 3.5 0.00 0.00 0.00 58 1012.7
20260906154534 91 78 0.0 2.6 0.00 0.00 0.00 61 1012.7
20260906153013 90 134 0.0 1.7 0.00 0.00 0.00 63 1012.6
20260906151509 89 65 0.0 2.6 0.00 0.00 0.00 66 1012.7
20260906150010 87 113 0.0 1.7 0.00 0.00 0.00 69 1012.5
20260906144626 86 159 0.9 2.6 0.00 0.00 0.00 71 1012.3
20260906143111 84 68 0.0 0.0 0.00 0.00 0.00 75 1012.4
20260906141554 82 131 0.0 0.0 0.00 0.00 0.00 78 1012.4
20260906140049 80 94 0.0 0.0 0.00 0.00 0.00 80 1012.3
20260906134550 79 132 0.0 0.0 0.00 0.00 0.00 81 1012.2
20260906133047 78 151 0.0 0.0 0.00 0.00 0.00 82 1012.2
20260906131549 78 143 0.0 0.0 0.00 0.00 0.00 82 1012.2
20260906130044 78 161 0.0 0.0 0.00 0.00 0.00 82 1012.1
20260906124537 77 250 0.0 0.0 0.00 0.00 0.00 82 1011.9
20260906123037 77 250 0.0 0.0 0.00 0.00 0.00 81 1011.9
20260906121532 77 250 0.0 0.0 0.00 0.00 0.00 81 1011.8
20260906120030 77 184 0.0 0.0 0.00 0.00 0.00 81 1011.7
20260906114533 78 184 0.0 0.0 0.00 0.00 0.00 80 1011.5
20260906113039 78 184 0.0 0.0 0.00 0.00 0.00 79 1011.3
20260906111530 78 184 0.0 0.0 0.00 0.00 0.00 79 1011.2
20260906110023 78 184 0.0 0.0 0.00 0.00 0.00 79 1011.1
20260906104521 79 184 0.0 0.0 0.00 0.00 0.00 78 1011.1
20260906103020 79 184 0.0 0.0 0.00 0.00 0.00 78 1011.1
20260906101517 79 184 0.0 0.0 0.00 0.00 0.00 77 1010.9
20260906100017 80 184 0.0 0.0 0.00 0.00 0.00 77 1010.7
20260906094525 80 184 0.0 0.0 0.00 0.00 0.00 76 1010.5
20260906093013 80 184 0.0 0.0 0.00 0.00 0.00 76 1010.4
20260906091523 81 153 0.0 0.0 0.00 0.00 0.00 75 1010.4
20260906090010 81 153 0.0 0.0 0.00 0.00 0.00 75 1010.4
20260906084517 81 143 0.0 0.0 0.00 0.00 0.00 74 1010.3
20260906083020 82 131 0.0 0.9 0.00 0.00 0.00 74 1010.3
20260906081519 82 221 0.0 3.5 0.00 0.00 0.00 74 1010.3
20260906080004 82 159 0.0 3.5 0.00 0.00 0.00 73 1010.4
20260906074503 82 178 0.0 4.3 0.00 0.00 0.00 73 1010.5
20260906073000 83 130 0.0 2.6 0.00 0.00 0.00 73 1010.4
20260906071609 83 207 0.9 4.3 0.00 0.00 0.00 72 1010.5
20260906070057 83 134 0.0 4.3 0.00 0.00 0.00 72 1010.7
20260906064556 84 146 0.9 4.3 0.00 0.00 0.00 72 1010.7
20260906063054 84 157 1.7 5.2 0.00 0.00 0.00 71 1010.8
20260906061552 84 165 0.0 1.7 0.00 0.00 0.00 71 1011.0
20260906060050 84 145 0.0 3.5 0.00 0.00 0.00 71 1011.0
20260906054554 85 186 0.9 3.5 0.00 0.00 0.00 71 1010.9
20260906053046 85 168 0.9 3.5 0.00 0.00 0.00 70 1010.7
20260906051551 85 144 0.0 4.3 0.00 0.00 0.00 70 1010.7
20260906050109 85 134 0.9 5.2 0.00 0.00 0.00 69 1010.7
20260906044543 85 165 0.0 2.6 0.00 0.00 0.00 68 1010.8
20260906043042 86 161 0.0 1.7 0.00 0.00 0.00 67 1010.7
20260906041542 86 152 0.0 2.6 0.00 0.00 0.00 66 1010.6
20260906040045 86 128 0.0 2.6 0.00 0.00 0.00 65 1010.5
20260906034543 87 134 0.9 2.6 0.00 0.00 0.00 65 1010.6
20260906033040 87 121 0.9 6.1 0.00 0.00 0.00 64 1010.6
20260906031543 87 137 0.9 7.0 0.00 0.00 0.00 63 1010.7
20260906030040 87 192 0.9 6.1 0.00 0.00 0.00 63 1010.6
20260906024539 88 135 1.7 7.0 0.00 0.00 0.00 62 1010.6
20260906023039 88 86 0.0 6.1 0.00 0.00 0.00 62 1010.4
20260906021541 88 117 0.0 4.3 0.00 0.00 0.00 61 1010.1
20260906020038 89 152 0.9 3.5 0.00 0.00 0.00 60 1010.0
20260906014537 89 171 0.9 6.1 0.00 0.00 0.00 58 1009.7
20260906013036 90 161 1.7 8.7 0.00 0.00 0.00 57 1009.4
20260906011537 91 175 0.9 7.8 0.00 0.00 0.00 55 1009.2
20260906010035 92 188 1.7 11.3 0.00 0.00 0.00 52 1009.1
20260906004537 95 127 2.6 10.4 0.00 0.00 0.00 47 1009.0
20260906003035 96 119 0.0 3.5 0.00 0.00 0.00 43 1008.7
20260906001535 96 140 0.0 2.6 0.00 0.00 0.00 42 1008.7
20260906000034 97 45 1.7 4.3 0.00 0.00 0.00 41 1008.6
20260905234534 98 126 0.0 0.9 0.00 0.00 0.00 40 1008.5